{"data":{"norad_id":60062,"epoch":"2026-09-20T09:39:52.655328Z","epoch_age_seconds":185999,"freshness":"STALE","line1":"1 60062U 24113D   26263.40269277 -.00004323  00000+0 -30823-4 0  9994","line2":"2 60062  53.1586 311.3062 0001293  60.2654 299.8492 15.69723583130149","mean_motion":15.69723583,"eccentricity":0.0001293,"inclination_deg":53.1586,"raan_deg":311.3062,"arg_perigee_deg":60.2654,"mean_anomaly_deg":299.8492,"bstar":-3.0823e-5,"rev_number":13014,"period_min":91.735896408457,"perigee_km":358.8166805962,"apogee_km":360.55908211052,"semimajor_km":6737.8248813534,"source":"CELESTRAK","updated_at":"2026-09-22T09:00:49.146748Z"}}